Location: Devargunta
(16.7631°N, 80.9077°E)
Time: 16:13:44
(UTC+00:00)

CZ-4B R/B - Pass Details

Date: 19 January 2021
Orbit: 387 x 458 km, 97.6° (Epoch: 25 February)

Event Time Altitude Azimuth Distance (km) Brightness Sun altitude
Rises 12:44:03 0° 356° (N) 2,419 4.9 -5.0°
Reaches altitude 10° 12:46:15 10° 345° (NNW) 1,536 4.1 -5.5°
Maximum altitude 12:49:07 28° 284° (WNW) 828 3.5 -6.2°
Drops below altitude 10° 12:51:55 10° 223° (SW) 1,497 5.2 -6.8°
Sets 12:54:03 0° 211° (SSW) 2,344 5.9 -7.3°
